2024/02/14 00:00:00,18.6, 3.1
2024/02/14 00:10:00,18.6, 3.1
2024/02/14 00:20:00,18.6, 2.8
2024/02/14 00:30:00,18.5, 2.8
2024/02/14 00:40:00,18.5, 2.8
2024/02/14 00:50:00,18.5, 2.4
2024/02/14 01:00:00,18.5, 3.2
2024/02/14 01:10:00,18.5, 3.1
2024/02/14 01:20:00,18.5, 3.2
2024/02/14 01:30:00,18.4, 2.9
2024/02/14 01:40:00,18.4, 2.8
2024/02/14 01:50:00,18.4, 2.9
2024/02/14 02:00:00,18.4, 2.9
2024/02/14 02:10:00,18.4, 3.2
2024/02/14 02:20:00,18.4, 3.1
2024/02/14 02:30:00,18.4, 3.0
2024/02/14 02:40:00,18.4, 3.0
2024/02/14 02:50:00,18.4, 2.8
2024/02/14 03:00:00,18.5, 3.1
2024/02/14 03:10:00,18.4, 2.8
2024/02/14 03:20:00,18.4, 2.7
2024/02/14 03:30:00,18.4, 2.9
2024/02/14 03:40:00,18.4, 2.8
2024/02/14 03:50:00,18.4, 2.6
2024/02/14 04:00:00,18.4, 2.5
2024/02/14 04:10:00,18.4, 2.4
2024/02/14 04:20:00,18.4, 2.4
2024/02/14 04:30:00,18.3, 2.4
2024/02/14 04:40:00,18.4, 2.4
2024/02/14 04:50:00,18.4, 2.2
2024/02/14 05:00:00,18.4, 2.2
2024/02/14 05:10:00,18.4, 2.0
2024/02/14 05:20:00,18.4, 2.2
2024/02/14 05:30:00,18.4, 2.1
2024/02/14 05:40:00,18.4, 2.2
2024/02/14 05:50:00,18.3, 1.8
2024/02/14 06:00:00,18.3, 2.1
2024/02/14 06:10:00,18.4, 1.9
2024/02/14 06:20:00,18.4, 2.2
2024/02/14 06:30:00,18.4, 2.5
2024/02/14 06:40:00,18.5, 2.0
2024/02/14 06:50:00,18.5, 2.3
2024/02/14 07:00:00,18.4, 2.4
2024/02/14 07:10:00,18.5, 2.4
2024/02/14 07:20:00,18.4, 2.4
2024/02/14 07:30:00,18.4, 2.6
2024/02/14 07:40:00,18.4, 2.4
2024/02/14 07:50:00,18.4, 2.7
2024/02/14 08:00:00,18.5, 3.3
2024/02/14 08:10:00,18.4, 3.3
2024/02/14 08:20:00,18.4, 4.0
2024/02/14 08:30:00,18.4, 4.2
2024/02/14 08:40:00,18.3, 4.5
2024/02/14 08:50:00,18.3, 4.8
2024/02/14 09:00:00,18.3, 5.7
2024/02/14 09:10:00,18.4, 5.9
2024/02/14 09:20:00,18.9, 6.3
2024/02/14 09:30:00,18.7, 6.6
2024/02/14 09:40:00,18.4, 6.9
2024/02/14 09:50:00,18.3, 7.4
2024/02/14 10:00:00,18.1, 8.0
2024/02/14 10:10:00,18.1, 8.0
2024/02/14 10:20:00,18.1, 8.9
2024/02/14 10:30:00,18.1, 8.9
2024/02/14 10:40:00,18.1, 9.1
2024/02/14 10:50:00,18.2, 9.6
2024/02/14 11:00:00,18.1, 9.6
2024/02/14 11:10:00,18.0, 9.6
2024/02/14 11:20:00,17.9,10.2
2024/02/14 11:30:00,17.8,11.5
2024/02/14 11:40:00,18.0,13.2
2024/02/14 11:50:00,18.3,14.2
2024/02/14 12:00:00,18.0,13.9
2024/02/14 12:10:00,17.9,14.4
2024/02/14 12:20:00,17.6,13.2
2024/02/14 12:30:00,17.3,13.2
2024/02/14 12:40:00,17.3,11.5
2024/02/14 12:50:00,17.5,12.4
2024/02/14 13:00:00,17.5,13.2
2024/02/14 13:10:00,17.2,12.7
2024/02/14 13:20:00,16.9,12.2
2024/02/14 13:30:00,16.8,11.9
2024/02/14 13:40:00,16.7,10.6
2024/02/14 13:50:00,16.6,11.0
2024/02/14 14:00:00,16.6,11.3
2024/02/14 14:10:00,16.7,11.3
2024/02/14 14:20:00,16.6,10.7
2024/02/14 14:30:00,16.6, 9.9
2024/02/14 14:40:00,16.5,10.8
2024/02/14 14:50:00,16.4,10.0
2024/02/14 15:00:00,16.5,10.7
2024/02/14 15:10:00,16.7,10.0
2024/02/14 15:20:00,16.2, 9.9
2024/02/14 15:30:00,16.0, 9.6
2024/02/14 15:40:00,15.9, 9.2
2024/02/14 15:50:00,15.8, 8.9
2024/02/14 16:00:00,15.8, 8.3
2024/02/14 16:10:00,15.8, 8.2
2024/02/14 16:20:00,15.9, 7.6
2024/02/14 16:30:00,15.8, 7.1
2024/02/14 16:40:00,15.8, 7.1
2024/02/14 16:50:00,15.7, 6.9
2024/02/14 17:00:00,15.6, 6.7
2024/02/14 17:10:00,15.5, 6.5
2024/02/14 17:20:00,15.5, 6.4
2024/02/14 17:30:00,15.5, 6.1
2024/02/14 17:40:00,15.6, 5.9
2024/02/14 17:50:00,15.6, 5.7
2024/02/14 18:00:00,15.6, 5.5
2024/02/14 18:10:00,15.5, 5.4
2024/02/14 18:20:00,15.4, 5.7
2024/02/14 18:30:00,15.5, 5.4
2024/02/14 18:40:00,15.5, 5.6
2024/02/14 18:50:00,15.4, 5.2
2024/02/14 19:00:00,15.3, 4.8
2024/02/14 19:10:00,15.3, 4.8
2024/02/14 19:20:00,15.3, 4.6
2024/02/14 19:30:00,15.2, 4.7
2024/02/14 19:40:00,15.2, 4.5
2024/02/14 19:50:00,15.2, 4.7
2024/02/14 20:00:00,15.2, 4.5
2024/02/14 20:10:00,15.2, 4.2
2024/02/14 20:20:00,15.2, 4.2
2024/02/14 20:30:00,15.1, 4.2
2024/02/14 20:40:00,15.4, 3.9
2024/02/14 20:50:00,15.7, 3.7
2024/02/14 21:00:00,15.8, 3.9
2024/02/14 21:10:00,15.6, 3.9
2024/02/14 21:20:00,15.5, 3.5
2024/02/14 21:30:00,15.7, 3.8
2024/02/14 21:40:00,15.9, 4.0
2024/02/14 21:50:00,15.9, 4.0
2024/02/14 22:00:00,15.5, 4.0
2024/02/14 22:10:00,15.1, 3.9
2024/02/14 22:20:00,14.9, 4.5
2024/02/14 22:30:00,14.9, 4.2
2024/02/14 22:40:00,14.9, 4.6
2024/02/14 22:50:00,15.0, 4.9
2024/02/14 23:00:00,15.0, 4.4
2024/02/14 23:10:00,15.0, 4.7
2024/02/14 23:20:00,15.0, 4.6
2024/02/14 23:30:00,15.0, 4.7
2024/02/14 23:40:00,15.0, 4.9
2024/02/14 23:50:00,15.0, 5.2
